Flag for U.S.A. Weather past 2 weeks in State College, Pennsylvania, U.S.A.

Now
30 °F

Passing clouds.


Feels Like: 23 °F
Forecast: 26 / 37 °F
Wind: 7 mph from Northwest

Location: University Park Airport

Current Time: Dec 19, 2014 at 6:12:21 PM

Latest Report: Dec 19, 2014 at 5:53 PM


Visibility: 10 mi

Pressure: 30.17 "Hg

Humidity: 64%

Dew point: 19 °F

Location of State CollegeLocation

Historic Weather in State College — Graph

°F

State College temperature yesterday

Maximum temperature yesterday: 30 °F (at 12:15 AM)
Minimum temperature yesterday: 28 °F (at 5:53 AM)
Average temperature yesterday: 30 °F

Past Weeks' High & Low Weather Summary

 TemperatureHumidityPressure
High43 °F (Dec 15, 12:53 PM)100% (Dec 5, 5:53 PM)30.59 "Hg (Dec 5, 5:53 PM)
Low21 °F (Dec 8, 6:53 AM)38% (Dec 7, 3:53 PM)29.69 "Hg (Dec 11, 5:35 AM)
Average33 °F81%30.10 "Hg
* Reported Dec 4 4:53 PM — Dec 19 4:53 PM, State College, Weather by CustomWeather, © 2014

Note: Actual official high and low records may vary slightly from our data, if they occured in-between our weather recording intervals... More about our weather records

Advertising

State College weather history for previous 24 hours

 ConditionsComfort  
Time TempWeatherWind HumidityBarometerVisibility
4:53 PM
Dec 19
32 °FPassing clouds.10 mph60%30.15 "Hg10 mi
3:53 PM32 °FPartly sunny.16 mph60%30.13 "Hg10 mi
2:53 PM32 °FPartly sunny.7 mph60%30.12 "Hg10 mi
1:53 PM32 °FOvercast.8 mph64%30.10 "Hg10 mi
12:53 PM32 °FOvercast.8 mph64%30.10 "Hg10 mi
11:53 AM32 °FOvercast.10 mph64%30.09 "Hg10 mi
10:53 AM30 °FOvercast.14 mph69%30.13 "Hg10 mi
9:53 AM30 °FOvercast.14 mph69%30.13 "Hg10 mi
8:53 AM30 °FOvercast.14 mph69%30.12 "Hg10 mi
7:53 AM30 °FOvercast.14 mph75%30.08 "Hg10 mi
6:53 AM30 °FMostly cloudy.14 mph75%30.07 "Hg10 mi
5:53 AM30 °FMostly cloudy.12 mph80%30.06 "Hg10 mi
5:15 AM30 °FOvercast.7 mph80%30.05 "Hg10 mi
4:55 AM30 °FOvercast.9 mph80%30.05 "Hg10 mi
4:35 AM30 °FOvercast.8 mph81%30.05 "Hg10 mi
4:15 AM30 °FOvercast.10 mph80%30.05 "Hg10 mi
3:55 AM30 °FOvercast.13 mph79%30.05 "Hg10 mi
3:15 AM30 °FOvercast.10 mph78%30.05 "Hg10 mi
2:55 AM30 °FOvercast.13 mph79%30.05 "Hg10 mi
2:15 AM30 °FOvercast.10 mph77%30.05 "Hg10 mi
1:55 AM30 °FOvercast.9 mph77%30.04 "Hg10 mi
1:15 AM30 °FOvercast.9 mph77%30.04 "Hg10 mi
12:55 AM30 °FOvercast.12 mph77%30.04 "Hg10 mi
12:15 AM30 °FOvercast.9 mph77%30.04 "Hg10 mi
11:55 PM
Dec 18
30 °FOvercast.10 mph77%30.05 "Hg10 mi
11:35 PM30 °FMostly cloudy.8 mph79%30.05 "Hg10 mi
11:15 PM30 °FOvercast.10 mph79%30.05 "Hg10 mi
10:35 PM30 °FOvercast.9 mph79%30.06 "Hg10 mi
10:15 PM30 °FOvercast.8 mph77%30.06 "Hg10 mi
9:55 PM30 °FOvercast.5 mph79%30.06 "Hg10 mi
8:53 PM30 °FOvercast.9 mph75%30.07 "Hg10 mi
7:53 PM30 °FOvercast.9 mph75%30.07 "Hg10 mi
6:53 PM30 °FOvercast.8 mph75%30.07 "Hg10 mi
Weather by CustomWeather, © 2014

See weather overviewHow to use our weather pages